Location: Chateh
(58.6667°N, 118.6000°W)
Time: 09:21:27
(UTC+00:00)

O/OREOS (USA 219) - Pass Details

Date: 11 December 2023
Orbit: 621 x 646 km, 72.0° (Epoch: 22 May)

Event Time Altitude Azimuth Distance (km) Brightness Sun altitude
Exits shadow 11:51:48 14° 32° (NNE) 1,735 ? -34.4°
Drops below altitude 10° 11:53:15 10° 50° (NE) 2,014 ? -34.2°
Sets 11:56:20 0° 72° (ENE) 2,925 ? -33.8°
